Regional Weather Roundup
Issued by NWS Upton, NY

Current Version | Previous Version | Graphics & Text | Print | Product List | Glossary Off
Versions: 1 2 3 4 5 6 7 8 9 10 11 12 13 14 15 16 17 18 19 20 21 22 23 24 25 26 27 28 29 30 31 32 33 34 35 36 37 38 39 40 41 42 43 44 45 46 47 48 49 50

000
ASUS41 KOKX 282308
RWROKX

REGIONAL WEATHER ROUNDUP
NATIONAL WEATHER SERVICE NEW YORK NY
700 PM EDT TUE JUL 28 2015

NOTE: "FAIR" INDICATES FEW OR NO CLOUDS BELOW 12,000 FEET WITH NO
SIGNIFICANT WEATHER AND/OR OBSTRUCTIONS TO VISIBILITY.

NYZ071-072-176-178-NJZ106-104-290000-
NEW YORK CITY METRO AREA


CITY           SKY/WX    TMP DP  RH WIND       PRES   REMARKS
CENTRAL PARK   SUNNY     86  64  47 VRB5      29.97S
LAGUARDIA APRT MOSUNNY   88  64  44 S12       29.93S
KENNEDY INTL   MOSUNNY   83  71  67 S13       29.95S
NEWARK/LIBERTY MOSUNNY   89  69  51 S9        29.93S HX  93
BRNX BOT. GARD   N/A     84  66  54 SE2       29.95S
TETERBORO      PTSUNNY   90  63  40 SE6       29.92R HX  91
$$

NYZ177-179-078>081-290000-
LONG ISLAND NEW YORK

CITY           SKY/WX    TMP DP  RH WIND       PRES   REMARKS
FARMINGDALE    SUNNY     83  70  64 SW12      29.96R
ISLIP          MOSUNNY   82  71  69 SW8       29.94R
SHIRLEY        SUNNY     83  70  64 SW9       29.96R
WESTHAMPTON    SUNNY     81  69  67 SW10      29.96S
MONTAUK POINT    N/A     80  70  71 SW7       29.96R
$$

NYZ052-065-067-290000-
HUDSON VALLEY

CITY           SKY/WX    TMP DP  RH WIND       PRES   REMARKS
WHITE PLAINS   MOSUNNY   86  64  47 CALM      29.95S
NEWBURGH       MOSUNNY   90  64  43 CALM      29.96S HX  91
MONTGOMERY     SUNNY     88  68  51 W3        29.94S HX  91
POUGHKEEPSIE   PTSUNNY   90  62  39 SW3       29.92S HX  90
ALBANY         PTSUNNY   83  66  56 CALM      29.94F
$$

NJZ001-105-106-008-010-013-015-019>022-104-290000-
NEW JERSEY

CITY           SKY/WX    TMP DP  RH WIND       PRES   REMARKS
NEWARK/LIBERTY MOSUNNY   89  69  51 S9        29.93S HX  93
TETERBORO      PTSUNNY   90  63  40 SE6       29.92R HX  91
CALDWELL       SUNNY     91  58  32 NW6       29.94S HX  90
MORRISTOWN     MOSUNNY   90  61  37 N3        29.94F
SOMERVILLE     SUNNY     92  62  36 NW5       29.93R HX  92
SUSSEX         SUNNY     88  66  48 CALM      29.97R HX  90
ANDOVER          N/A     85  66  53 CALM      29.98R
TRENTON        SUNNY     91  59  33 NW5       29.93F HX  90
MILLVILLE      SUNNY     83  72  69 VRB5      29.96S
ATLANTIC CITY  CLOUDY    77  72  84 S7        29.96F
WRIGHTSTOWN    SUNNY     85  74  70 S6        29.92S HX  92
TOMS RIVER     SUNNY     84  72  65 S8        29.95F
BELMAR         MOSUNNY   84  70  61 S7        29.95S
$$

PAZ047>061-062-071-290000-
EASTERN PENNSYLVANIA

CITY           SKY/WX    TMP DP  RH WIND       PRES   REMARKS
PHILADELPHIA   MOSUNNY   91  68  46 SW9       29.93F HX  95
ALLENTOWN      SUNNY     89  64  43 N5        29.96S HX  90
SCRANTON       SUNNY     88  63  43 NW8       29.99R
$$

CTZ002-004>006-009-010-012-RIZ004-006-007-MAZ004-011-015-290000-
SOUTHERN NEW ENGLAND
 IN CT

CITY           SKY/WX    TMP DP  RH WIND       PRES   REMARKS
BRADLEY INTL   PTSUNNY   88  64  44 W10       29.92R
HARTFORD       MOSUNNY   90  60  36 NW8       29.92R
DANBURY        SUNNY     87  63  44 CALM      29.97R
WTRBRY/OXFORD  MOSUNNY   84  64  51 NW3       30.01R
BRIDGEPORT     SUNNY     87  67  51 SW6       29.94R HX  90
MERIDEN        MOSUNNY   90  61  37 NW9       29.94R HX  90
NEW HAVEN      MOSUNNY   84  68  58 CALM      29.94R
CHESTER        FAIR      82  72  69 CALM      29.96R
GROTON         MOSUNNY   79  68  69 SW6       29.93R
WILLIMANTIC    MOSUNNY   87  69  54 CALM      29.93R HX  91

 IN RI

CITY           SKY/WX    TMP DP  RH WIND       PRES   REMARKS
PROVIDENCE     PTSUNNY   77  66  68 S6        29.95R
BLOCK ISLAND   PTSUNNY   77  72  83 E5        29.98R
WESTERLY       LGT RAIN  79  72  79 NE8       29.97R

 IN MA

CITY           SKY/WX    TMP DP  RH WIND       PRES   REMARKS
BOSTON         PTSUNNY   78  66  66 E9        29.94S
WORCESTER      PTSUNNY   78  68  71 CALM      29.99R
WESTFIELD      MOSUNNY   84  69  60 NE3       29.93R
PROVINCETOWN   MOSUNNY   77  66  69 S5        29.94S
NANTUCKET      CLOUDY    72  70  93 S6        29.95F
$$

ANZ330-335-338-340-345-350-353-355-290000-
COASTAL MARINE OBSERVATIONS


STATION/POSITION TIME  SKY/WX   TEMP    WIND        PRES    VSBY  WAVE
                                AIR SEA DIR/SP/G                  HT/PER
                 (UTC)          (F)     (DEG/KT/KT) (MB)    (MI)  (FT/S)
NY HARB ENTRANCE 2250            78 77  200/ 14/ 14 1013.4          2/11
4S FIRE IS       NOT AVBL
20S FIRE ISLAND  2250            76 74  220/ 10/ 12 1013.9          2/10
GREAT SOUTH BAY  2200            78 81  240/ 12/ 14   N/A
23SW MTP         2250            76 75  230/ 10/ 10 1013.8          2/11
HUDSON CANYON    NOT AVBL
KINGS POINT      2200            85 73  190/  7/  9 1013.0
CENTRAL LI SOUND NOT AVBL
EASTERN LI SOUND 2200            77 69  260/  6/  8   N/A
ROBBINS REEF     2200            83     160/ 13/ 15 1012.4
$$


>>>>>>>>>>>>>>>>>>>>>>>>>>>> KEY <<<<<<<<<<<<<<<<<<<<<<<<<<<
>                                                          <
>     SKY/WX - SKY CONDITION/PRESENT WEATHER               <
>     TMP    - TEMPERATURE IN FAHRENHEIT                   <
>     DP     - DEWPOINT IN FAHRENHEIT                      <
>     RH     - RELATIVE HUMIDITY IN PERCENT                <
>     WIND   - DIRECTION AND SPEED IN MPH                  <
>     PRES   - MEAN SEA LEVEL PRESSURE IN INCHES OF HG     <
>     WCI    - WIND CHILL INDEX                            <
>     VSB    - VISIBILITY IN MILES                         <
>     HX     - HEAT INDEX                                  <
>     TC     - TEMPERATURE IN CELSIUS                      <
>     VRB    - VARIABLE WIND DIRECTION                     <
>                                                          <
>>>>>>>>>>>>>>>>>>>>>>>>>>>> KEY <<<<<<<<<<<<<<<<<<<<<<<<<<<





USA.gov is the U.S. government's official web portal to all federal, state and local government web resources and services.